This demonstration page uses our WeatherBlox Daily Observations layout. Learn more.

Left ArrowRight Arrow

34.16533, -84.80231

Hourly Observations for June 17, 2019

Temp ( °F °C ) Dew Point ( °F °C ) Humidity (%) Winds ( mph kmh ) Pressure ( in mb ) Visibility ( mi km ) Precip ( " mm )
12:53 am 00:53 Mostly Cloudy 73 22.8 69 20.6 87 87 Calm 30.01 1016 10 16 0.00 0.00
1:53 am 01:53 Clear 70 21.1 68 20 93 93 Calm 29.99 1016 10 16 0.00 0.00
2:53 am 02:53 Clear 68 20 67 19.4 96 96 Calm 29.97 1015 10 16 0.00 0.00
3:53 am 03:53 Clear 67 19.4 66 18.9 97 97 Calm 29.96 1014 10 16 0.00 0.00
4:53 am 04:53 Clear 68 20 67 19.4 96 96 Calm 29.95 1014 10 16 0.00 0.00
5:53 am 05:53 Clear 68 20 66 18.9 93 93 Calm 29.97 1015 10 16 0.00 0.00
6:53 am 06:53 Sunny 68 20 66 18.9 93 93 Calm 29.99 1016 9 14 0.00 0.00
7:53 am 07:53 Sunny 69 20.6 67 19.4 93 93 Calm 30.02 1017 9 14 0.00 0.00
8:53 am 08:53 Sunny 74 23.3 69 20.6 85 85 Calm 30.03 1017 10 16 0.00 0.00
9:53 am 09:53 Sunny 80 26.7 69 20.6 69 69 Calm 30.03 1017 10 16 0.00 0.00
10:53 am 10:53 Sunny 84 28.9 70 21.1 63 63 Calm 30.03 1017 10 16 0.00 0.00
11:53 am 11:53 Sunny 86 30 69 20.6 57 57 VRB 6 9 30.02 1017 10 16 0.00 0.00
12:53 pm 12:53 Cloudy 85 29.4 70 21.1 61 61 Calm 30.02 1017 10 16 0.00 0.00
1:53 pm 13:53 Partly Cloudy 90 32.2 64 17.8 42 42 VRB 6 9 29.99 1016 10 16 0.00 0.00
7:53 pm 19:53 Sunny 83 28.3 70 21.1 65 65 Calm 29.96 1014 10 16 0.00 0.00
8:53 pm 20:53 Sunny 77 25 72 22.2 85 85 Calm 29.98 1015 10 16 0.00 0.00
9:53 pm 21:53 Mostly Cloudy 75 23.9 74 23.3 96 96 SE 3 6 29.98 1015 10 16 0.06 1.52
10:42 pm 22:42 Mostly Clear with Nearby Thunderstorms 73 22.8 72 22.2 96 96 S 6 9 30.01 1016 9 14 0.00 0.00
10:53 pm 22:53 Partly Cloudy with Nearby Thunderstorms 76 24.4 71 21.7 85 85 S 10 17 30.00 1016 10 16 0.00 0.00
11:04 pm 23:04 Mostly Clear 75 23.9 68 20 79 79 S 12 19 30.01 1016 10 16 0.00 0.00
11:53 pm 23:53 Mostly Clear 72 22.2 69 20.6 91 91 SSE 9 15 29.99 1016 10 16 0.04 1.02

Powered by AerisWeather